Weather History for Omaha, NE

Change the Weather History Date:

Monday, June 17, 2013

  Actual Average Record
Temperature  
Mean Temperature 76 °F 73 °F  
Max Temperature 89 °F 84 °F 100 °F (1918)
Min Temperature 62 °F 62 °F 42 °F (1974)
Degree Days  
Heating Degree Days 0 0  
Month to date heating degree days 16 15  
Since 1 June heating degree days 16 15  
Since 1 July heating degree days 6150 6165  
Cooling Degree Days 11 8  
Month to date cooling degree days 76 103  
Year to date cooling degree days 172 185  
Since 1 June cooling degree days 76 103  
Growing Degree Days 26 (Base 50)    
Moisture  
Dew Point 59 °F    
Average Humidity 64    
Maximum Humidity 93    
Minimum Humidity 35    
Precipitation  
Precipitation 0.00 in 0.13 in 5.02 in (1875)
Month to date precipitation 2.88 2.51  
Year to date precipitation 17.22 13.79  
Snow  
Snow 0.00 in 0.00 in - ()
Month to date snowfall 0.0 0.0  
Since 1 July snowfall 35.7 26.4  
Snow Depth 0.00 in    
Sea Level Pressure  
Sea Level Pressure 29.96 in    
Wind  
Wind Speed 7 mph (NNW)    
Max Wind Speed 14 mph    
Max Gust Speed 17 mph    
Visibility 10 miles    
Events      
T = Trace of Precipitation, MM = Missing Value Source: NWS Daily Summary

Daily Weather History Graph

Daily Weather History Graph

Search for Another Location

Airport:

Trip Planner

Search our weather history database for the weather conditions in past years. The results will help you decide how hot, cold, wet, or windy it might be!

Date:

Astronomy

Jun. 17, 2013 Rise Set
Actual Time 5:49 AM CDT 8:59 PM CDT
Civil Twilight 5:16 AM CDT 9:33 PM CDT
Nautical Twilight 4:32 AM CDT 10:16 PM CDT
Astronomical Twilight 3:40 AM CDT 11:08 PM CDT
Moon 2:36 PM CDT (6/17) 1:29 AM CDT (6/17)
Length of Visible Light 16h 17m
Length of Day
15h 09m
First Quarter, 60% of the Moon is Illuminated
Jun 17
First Quarter
Jun 23
Full
Jun 29
Last Quarter
Jul 8
New
Jul 15
First Quarter

Hourly Weather History & Observations

Time (CDT) Temp. Heat Index Dew Point Humidity Pressure Visibility Wind Dir Wind Speed Gust Speed Precip Events Conditions
12:52 AM 69.1 °F - 64.0 °F 84% 29.94 in 10.0 mi North 4.6 mph - N/A   Overcast
1:52 AM 66.9 °F - 62.1 °F 84% 29.95 in 10.0 mi NNW 3.5 mph - N/A   Overcast
2:52 AM 66.9 °F - 63.0 °F 87% 29.94 in 10.0 mi Calm Calm - N/A   Mostly Cloudy
3:52 AM 64.9 °F - 61.0 °F 87% 29.93 in 10.0 mi NNW 3.5 mph - N/A   Mostly Cloudy
4:52 AM 63.0 °F - 61.0 °F 93% 29.94 in 10.0 mi NNW 5.8 mph - N/A   Mostly Cloudy
5:52 AM 63.0 °F - 60.1 °F 90% 29.97 in 10.0 mi NW 5.8 mph - N/A   Mostly Cloudy
6:52 AM 64.0 °F - 61.0 °F 90% 29.99 in 10.0 mi North 3.5 mph - N/A   Mostly Cloudy
7:52 AM 68.0 °F - 62.1 °F 81% 30.00 in 10.0 mi North 4.6 mph - N/A   Mostly Cloudy
8:52 AM 72.0 °F - 62.1 °F 71% 30.00 in 10.0 mi North 3.5 mph - N/A   Mostly Cloudy
9:52 AM 77.0 °F - 60.1 °F 56% 30.00 in 10.0 mi NNE 3.5 mph - N/A   Mostly Cloudy
10:52 AM 80.1 °F 80.6 °F 57.9 °F 47% 29.99 in 10.0 mi North 9.2 mph - N/A   Scattered Clouds
11:52 AM 82.0 °F 81.7 °F 57.0 °F 42% 30.00 in 10.0 mi North 9.2 mph - N/A   Scattered Clouds
12:52 PM 84.0 °F 82.9 °F 55.0 °F 37% 30.00 in 10.0 mi WNW 4.6 mph - N/A   Scattered Clouds
1:52 PM 86.0 °F 85.4 °F 59.0 °F 40% 29.99 in 10.0 mi NW 8.1 mph - N/A   Scattered Clouds
2:52 PM 86.0 °F 84.9 °F 57.0 °F 37% 29.96 in 10.0 mi WNW 8.1 mph - N/A   Scattered Clouds
3:52 PM 87.1 °F 86.5 °F 59.0 °F 39% 29.96 in 10.0 mi NNW 11.5 mph - N/A   Scattered Clouds
4:52 PM 88.0 °F 86.7 °F 57.0 °F 35% 29.95 in 10.0 mi NNW 8.1 mph - N/A   Scattered Clouds
5:52 PM 87.1 °F 86.5 °F 59.0 °F 39% 29.92 in 10.0 mi NW 6.9 mph - N/A   Scattered Clouds
6:52 PM 86.0 °F 84.7 °F 55.9 °F 36% 29.93 in 10.0 mi NNE 13.8 mph - N/A   Scattered Clouds
7:52 PM 82.9 °F 82.6 °F 57.9 °F 42% 29.92 in 10.0 mi North 10.4 mph - N/A   Scattered Clouds
8:52 PM 80.1 °F 80.4 °F 57.0 °F 45% 29.94 in 10.0 mi North 4.6 mph - N/A   Scattered Clouds
9:52 PM 75.0 °F - 59.0 °F 57% 29.96 in 10.0 mi North 4.6 mph - N/A   Partly Cloudy
10:52 PM 72.0 °F - 55.9 °F 57% 29.98 in 10.0 mi North 9.2 mph - N/A   Partly Cloudy
11:52 PM 69.1 °F - 57.0 °F 65% 29.98 in 10.0 mi North 6.9 mph - N/A   Partly Cloudy